User: anonymous   Login
Location: Dunedin
(45.8670°S, 170.5000°E)
Time: 20:53:34
(UTC+13:00)
Language:

H-2A R/B - Orbit

View from above orbital plane
View from above orbital plane
View from above satellite
View from above satellite

Ground track
Ground track

The orbit data is extracted from the following two-line orbital elements,

1 27601U 02056E   19291.72229740  .00000034  00000-0  27605-4 0  9995
2 27601  98.2616 334.5502 0070915 280.4322 218.7654 14.31912739879956
Epoch (UTC): 18 October 2019 17:20:06
Eccentricity: 0.0070915
inclination: 98.2616°
perigee height: 734 km
apogee height: 836 km
right ascension of ascending node: 334.5502°
argument of perigee: 280.4322°
revolutions per day: 14.31912739
mean anomaly at epoch: 218.7654°
orbit number at epoch: 87995

The dashed part of the orbit path shows where the satellite is in the earth's shadow,  

DLR